FW5810 Weather Reports


time (UTC)temp
F
wind
direction
speed
knots
gust
knots
rain 1hr
in
rain 24hr
in
rain mn
in
humidity
%
barometer
mb
20260510081756 52 13 3.5 6.1 0.00 0.00 0.00 90 1011.6
20260510081253 52 13 5.2 9.6 0.00 0.00 0.00 88 1011.5
20260510080749 53 6 3.5 6.1 0.00 0.00 0.00 91 1011.5
20260510080244 53 21 2.6 7.0 0.00 0.00 0.00 92 1011.2
20260510075741 53 343 3.5 4.3 0.00 0.00 0.00 93 1011.3
20260510075239 53 5 2.6 4.3 0.00 0.00 0.00 94 1011.2
20260510074736 53 10 1.7 2.6 0.00 0.00 0.00 95 1011.0
20260510074232 54 4 5.2 6.1 0.00 0.00 0.00 96 1011.0
20260510073728 53 7 1.7 4.3 0.00 0.00 0.00 96 1011.0
20260510073224 53 6 0.9 0.9 0.00 0.00 0.00 97 1011.1
20260510072720 53 6 0.9 0.9 0.00 0.00 0.00 97 1011.1
20260510072217 53 6 0.0 0.9 0.00 0.00 0.00 97 1010.9
20260510071714 53 6 0.0 0.9 0.00 0.00 0.00 96 1010.8
20260510071210 53 6 0.0 0.0 0.00 0.00 0.00 96 1010.6
20260510070708 53 6 0.0 0.0 0.00 0.00 0.00 96 1010.6
20260510070205 53 6 0.9 0.9 0.00 0.00 0.00 96 1010.6
20260510065700 53 6 0.0 0.0 0.00 0.00 0.00 95 1010.6
20260510065157 53 6 0.0 0.9 0.00 0.00 0.00 95 1010.6
20260510064653 54 6 0.9 0.9 0.00 0.00 0.00 95 1010.2
20260510064150 54 6 0.0 0.9 0.00 0.00 0.00 95 1010.3
20260510063648 54 5 1.7 2.6 0.00 0.00 0.00 94 1010.1
20260510063144 54 8 1.7 0.9 0.00 0.00 0.00 94 1010.2
20260510062640 54 4 0.9 2.6 0.00 0.00 0.00 95 1010.6
20260510062136 54 318 0.0 2.6 0.00 0.00 0.00 94 1010.6
20260510061631 54 24 1.7 7.0 0.00 0.00 0.00 95 1010.5
20260510061129 54 354 1.7 2.6 0.00 0.00 0.00 95 1010.2
20260510060625 54 331 5.2 10.4 0.00 0.00 0.00 95 1010.6
20260510060122 54 1 3.5 3.5 0.00 0.00 0.00 95 1010.0
20260510055618 54 236 3.5 3.5 0.00 0.00 0.00 95 1009.7
20260510055116 54 244 0.9 0.9 0.00 0.00 0.00 95 1009.7
20260510054612 54 205 2.6 2.6 0.00 0.00 0.00 95 1009.7
20260510054107 54 224 4.3 6.1 0.00 0.00 0.00 95 1009.6
20260510053606 54 233 4.3 6.1 0.00 0.00 0.00 95 1009.7
20260510053104 54 227 2.6 3.5 0.00 0.00 0.00 96 1009.6
20260510052559 54 223 1.7 3.5 0.00 0.00 0.00 96 1009.5
20260510052056 54 232 0.9 2.6 0.00 0.00 0.00 96 1009.3
20260510051551 53 202 2.6 2.6 0.00 0.00 0.00 95 1009.4
20260510051049 54 203 0.9 0.9 0.00 0.00 0.00 95 1009.5
20260510050546 54 202 1.7 2.6 0.00 0.00 0.00 95 1009.3
20260510050043 54 210 0.9 2.6 0.00 0.00 0.00 95 1009.4
20260510045540 54 156 1.7 2.6 0.00 0.00 0.00 95 1009.4
20260510045036 54 132 1.7 3.5 0.00 0.00 0.00 96 1009.3
20260510044533 54 184 0.9 3.5 0.00 0.00 0.00 96 1009.4
20260510044031 54 192 0.9 3.5 0.00 0.00 0.00 96 1009.4
20260510043526 54 206 1.7 0.9 0.00 0.00 0.00 96 1009.5
20260510043021 54 184 1.7 0.9 0.00 0.00 0.00 95 1009.4
20260510042515 54 125 0.9 0.9 0.00 0.00 0.00 95 1009.7
20260510042010 55 120 0.9 2.6 0.00 0.00 0.00 95 1009.6
20260510041509 55 119 2.6 2.6 0.00 0.00 0.00 95 1009.6
20260510041006 55 135 2.6 2.6 0.00 0.00 0.00 95 1009.8
20260510040502 55 77 1.7 2.6 0.00 0.00 0.00 95 1010.1
20260510035957 55 8 0.9 0.9 0.00 1.03 1.03 95 1009.6
20260510035455 55 5 0.9 2.6 0.00 1.03 1.03 95 1009.7
20260510034954 55 68 2.6 2.6 0.07 1.03 1.03 95 1009.9
20260510034453 55 355 4.3 4.3 0.07 1.03 1.03 94 1009.8
20260510033949 55 261 0.0 3.5 0.00 1.02 1.02 94 1009.4
20260510033445 55 186 2.6 3.5 0.00 1.02 1.02 93 1009.3
20260510032942 55 188 0.0 2.6 0.00 1.02 1.02 94 1009.5
20260510032439 55 191 1.7 3.5 0.00 1.02 1.02 94 1009.7
20260510031939 55 220 1.7 3.5 0.00 1.02 1.02 94 1009.8
20260510031435 55 171 1.7 2.6 0.00 1.02 1.02 94 1009.5
20260510030931 55 226 0.9 0.9 0.00 1.02 1.02 94 1009.6
20260510030426 55 227 0.0 0.9 0.00 1.02 1.02 94 1009.5
20260510025924 55 256 1.7 2.6 0.17 1.02 1.02 94 1009.5
20260510025421 55 20 3.5 6.1 0.17 1.02 1.02 95 1009.5
20260510024919 54 7 0.0 2.6 0.00 0.99 0.99 95 1009.9
20260510024415 54 247 0.0 0.9 0.00 0.99 0.99 95 1009.2
20260510023911 54 245 0.0 0.0 0.00 0.99 0.99 95 1008.8
20260510023407 54 245 0.0 2.6 0.00 0.99 0.99 95 1008.9
20260510022905 54 202 0.9 0.9 0.00 0.99 0.99 95 1008.9
20260510022404 54 158 0.9 4.3 0.19 0.99 0.99 95 1008.8
20260510021903 54 153 2.6 2.6 0.19 0.99 0.99 95 1008.7
20260510021401 54 238 0.9 2.6 0.05 0.97 0.97 95 1009.0
20260510020857 54 217 0.9 0.9 0.00 0.96 0.96 95 1008.7
20260510020352 54 227 0.0 0.9 0.00 0.96 0.96 94 1008.8
20260510015848 54 227 0.9 0.9 0.00 0.96 0.96 94 1008.6
20260510015344 54 227 0.0 0.0 0.00 0.96 0.96 94 1008.6
20260510014839 54 227 0.0 0.9 0.00 0.96 0.96 93 1008.6
20260510014337 54 231 0.9 0.9 0.00 0.96 0.96 93 1008.5
20260510013833 55 125 0.9 2.6 0.00 0.96 0.96 93 1008.4
20260510013329 55 237 0.0 0.9 0.00 0.96 0.96 93 1008.6
20260510012824 55 231 0.0 2.6 0.00 0.96 0.96 93 1008.6
20260510012323 55 228 1.7 3.5 0.00 0.96 0.96 93 1008.6
20260510011819 55 134 1.7 3.5 0.00 0.96 0.96 93 1008.2
20260510011314 54 246 0.9 2.6 0.00 0.96 0.96 93 1008.3
20260510010811 54 200 0.9 4.3 0.00 0.96 0.96 93 1008.2
20260510010308 54 286 0.0 0.9 0.00 0.96 0.96 93 1008.2
20260510005805 55 218 0.0 0.9 0.00 0.96 0.96 92 1008.3
20260510005301 55 215 0.9 2.6 0.00 0.96 0.96 92 1008.2
20260510004759 55 265 0.9 3.5 0.00 0.96 0.96 92 1008.1
20260510004256 55 222 1.7 3.5 0.00 0.96 0.96 91 1008.3
20260510003754 55 263 3.5 6.1 0.07 0.96 0.96 91 1008.3
20260510003250 55 187 1.7 6.1 0.07 0.96 0.96 91 1008.1
20260510002749 55 222 2.6 2.6 0.12 0.95 0.95 92 1007.9
20260510002247 55 308 0.0 3.5 0.17 0.95 0.95 92 1008.5
20260510001743 55 269 2.6 3.5 0.17 0.93 0.93 92 1008.6
20260510001242 55 288 2.6 4.3 0.24 0.92 0.92 93 1008.5
20260510000737 55 303 3.5 6.1 0.31 0.90 0.90 92 1008.6
20260510000235 55 265 0.9 8.7 0.78 0.88 0.88 92 1008.7
20260509235731 55 275 1.7 16.5 1.02 0.84 0.84 91 1008.7
20260509235228 55 322 12.2 20.0 0.90 0.74 0.74 88 1007.9
20260509234724 57 2 7.8 16.5 0.61 0.66 0.66 85 1007.4
20260509234221 60 290 3.5 18.2 0.12 0.58 0.58 77 1007.8
20260509233719 66 358 7.0 9.6 0.00 0.56 0.56 57 1007.5
20260509233216 67 266 1.7 6.1 0.00 0.56 0.56 54 1006.4
20260509232713 67 255 5.2 7.0 0.00 0.56 0.56 52 1006.2
20260509232210 67 252 3.5 6.1 0.00 0.56 0.56 52 1006.0
20260509231706 67 221 6.1 13.9 0.00 0.56 0.56 51 1005.8
20260509231204 67 214 8.7 10.4 0.00 0.56 0.56 50 1005.8
20260509230701 67 164 5.2 9.6 0.00 0.56 0.56 50 1005.9
20260509230157 67 226 3.5 8.7 0.00 0.56 0.56 50 1006.0
20260509225653 67 222 3.5 7.0 0.00 0.56 0.56 51 1005.9
20260509225149 68 227 13.9 16.5 0.00 0.56 0.56 50 1005.8
20260509224644 68 156 2.6 3.5 0.00 0.56 0.56 52 1005.4
20260509224142 68 191 7.0 18.2 0.00 0.56 0.56 50 1005.6
20260509223638 68 217 2.6 7.0 0.00 0.56 0.56 49 1005.7
20260509223136 68 227 6.1 9.6 0.00 0.56 0.56 49 1006.0
20260509222633 69 186 10.4 13.0 0.00 0.56 0.56 47 1005.6
20260509222128 69 203 4.3 8.7 0.00 0.56 0.56 47 1005.8
20260509221624 69 231 7.8 13.9 0.00 0.56 0.56 46 1005.8
20260509221120 69 257 5.2 10.4 0.00 0.56 0.56 49 1005.7
20260509220616 69 201 4.3 13.9 0.00 0.56 0.56 48 1005.7
20260509220113 69 268 10.4 18.2 0.00 0.56 0.56 48 1006.0
20260509215608 69 217 2.6 8.7 0.00 0.56 0.56 50 1005.6
20260509215106 69 201 7.8 8.7 0.00 0.56 0.56 49 1005.7
20260509214602 69 207 6.1 13.9 0.00 0.56 0.56 48 1005.6
20260509214059 69 217 7.0 10.4 0.00 0.56 0.56 48 1005.7
20260509213555 69 159 7.8 13.9 0.00 0.56 0.56 47 1005.8
20260509213052 69 263 6.1 16.5 0.00 0.56 0.56 48 1005.9
20260509212549 69 249 7.0 12.2 0.00 0.56 0.56 46 1005.8
20260509212046 68 208 3.5 10.4 0.00 0.56 0.56 50 1006.1
20260509211542 69 275 8.7 13.9 0.00 0.56 0.56 48 1006.1
20260509211039 69 201 5.2 10.4 0.00 0.56 0.56 49 1006.2
20260509210536 69 128 3.5 12.2 0.00 0.56 0.56 49 1006.0
20260509210032 69 158 7.0 13.0 0.00 0.56 0.56 48 1006.2
20260509205526 70 206 9.6 12.2 0.00 0.56 0.56 46 1006.5
20260509205022 69 135 3.5 8.7 0.00 0.56 0.56 46 1006.3
20260509204518 68 199 5.2 10.4 0.00 0.56 0.56 52 1006.3
20260509204015 68 203 7.0 12.2 0.00 0.56 0.56 50 1006.4
20260509203510 67 241 8.7 18.2 0.00 0.56 0.56 51 1006.4
20260509203009 69 175 6.1 8.7 0.00 0.56 0.56 50 1006.5
20260509202503 69 266 7.0 13.9 0.00 0.56 0.56 50 1006.4
20260509201959 70 202 7.8 16.5 0.00 0.56 0.56 50 1006.6
20260509201454 68 187 3.5 8.7 0.00 0.56 0.56 54 1006.6
20260509200951 69 234 7.8 10.4 0.00 0.56 0.56 50 1006.7
20260509200446 68 250 5.2 8.7 0.00 0.56 0.56 52 1006.7
20260509195943 68 102 6.1 8.7 0.00 0.56 0.56 53 1006.8
20260509195433 68 201 4.3 4.3 0.00 0.56 0.56 51 1006.9
20260509194932 68 181 4.3 10.4 0.00 0.56 0.56 53 1007.1
20260509194428 67 215 4.3 13.9 0.00 0.56 0.56 53 1007.2
20260509193926 67 227 6.1 13.0 0.00 0.56 0.56 53 1007.1
20260509193425 67 213 3.5 13.9 0.00 0.56 0.56 53 1007.4
20260509192921 67 219 13.9 16.5 0.00 0.56 0.56 52 1007.7
20260509192418 67 242 10.4 13.0 0.00 0.56 0.56 51 1007.7
20260509191913 68 235 7.0 15.6 0.00 0.56 0.56 50 1007.5
20260509191409 67 256 4.3 7.0 0.00 0.56 0.56 54 1007.6
20260509190905 66 228 6.1 13.9 0.00 0.56 0.56 56 1007.6
20260509190402 67 178 7.8 10.4 0.00 0.56 0.56 51 1007.5
20260509185900 68 250 6.1 13.0 0.00 0.56 0.56 54 1007.7
20260509185356 67 265 7.0 10.4 0.00 0.56 0.56 53 1007.8
20260509184853 66 240 3.5 7.0 0.00 0.56 0.56 54 1007.8
20260509184350 66 233 9.6 15.6 0.00 0.56 0.56 53 1007.8
20260509183847 67 229 7.0 8.7 0.00 0.56 0.56 53 1007.7
20260509183342 65 226 12.2 13.0 0.00 0.56 0.56 56 1007.8
20260509182838 65 233 4.3 13.9 0.00 0.56 0.56 55 1008.0
20260509182335 66 210 6.1 13.0 0.00 0.56 0.56 55 1008.0
20260509181833 65 188 6.1 13.9 0.00 0.56 0.56 58 1008.0
20260509181330 64 276 3.5 9.6 0.00 0.56 0.56 61 1007.9
20260509180827 64 234 7.8 13.0 0.00 0.56 0.56 58 1008.2
20260509180323 64 242 6.1 13.0 0.00 0.56 0.56 58 1008.1
20260509175820 64 232 4.3 12.2 0.00 0.56 0.56 59 1008.0
20260509175316 65 124 5.2 9.6 0.00 0.56 0.56 59 1008.0
20260509174812 65 243 4.3 8.7 0.00 0.56 0.56 61 1008.1
20260509174308 64 211 2.6 6.1 0.00 0.56 0.56 63 1008.1
20260509173804 63 273 7.8 12.2 0.00 0.56 0.56 60 1007.8
20260509173300 63 239 5.2 9.6 0.00 0.56 0.56 62 1007.8
20260509172756 64 200 7.8 9.6 0.00 0.56 0.56 61 1007.8
20260509172253 64 185 3.5 7.0 0.00 0.56 0.56 63 1007.9
20260509171748 64 228 3.5 9.6 0.00 0.56 0.56 62 1007.9
20260509171245 64 214 2.6 4.3 0.00 0.56 0.56 65 1008.3
20260509170741 63 253 3.5 7.0 0.00 0.56 0.56 65 1008.1
20260509170237 63 194 2.6 6.1 0.00 0.56 0.56 65 1008.1
20260509165736 63 234 5.2 7.0 0.00 0.56 0.56 64 1008.2
20260509165231 63 230 3.5 8.7 0.00 0.56 0.56 63 1008.2
20260509164727 63 139 6.1 10.4 0.00 0.56 0.56 64 1008.4
20260509164223 62 266 1.7 4.3 0.00 0.56 0.56 66 1008.4
20260509163721 62 243 1.7 7.0 0.00 0.56 0.56 67 1008.2
20260509163217 62 237 7.0 7.0 0.00 0.56 0.56 67 1008.4
20260509162715 62 142 4.3 10.4 0.00 0.56 0.56 70 1008.4
20260509162210 60 235 2.6 8.7 0.00 0.56 0.56 73 1008.3
20260509161706 61 214 9.6 10.4 0.00 0.56 0.56 71 1008.5
20260509161202 60 238 2.6 6.1 0.00 0.56 0.56 77 1008.4
20260509160657 60 210 9.6 12.2 0.00 0.56 0.56 73 1008.4
20260509160153 60 192 6.1 10.4 0.00 0.56 0.56 74 1008.5
20260509155649 60 261 3.5 7.0 0.00 0.56 0.56 77 1008.5
20260509155146 59 263 7.0 9.6 0.00 0.56 0.56 76 1008.4
20260509154641 58 271 1.7 7.0 0.00 0.56 0.56 80 1008.5
20260509154139 58 262 1.7 3.5 0.00 0.56 0.56 80 1008.4
20260509153636 58 222 2.6 9.6 0.00 0.56 0.56 80 1008.4
20260509153132 58 160 2.6 7.0 0.00 0.56 0.56 81 1008.3
20260509152628 58 262 3.5 4.3 0.00 0.56 0.56 81 1008.5
20260509152126 58 251 4.3 9.6 0.00 0.56 0.56 81 1008.4
20260509151622 58 216 2.6 4.3 0.00 0.56 0.56 83 1008.4
20260509151120 58 221 7.8 8.7 0.00 0.56 0.56 81 1008.4
20260509150618 57 250 2.6 3.5 0.00 0.56 0.56 86 1008.4
20260509150116 56 268 4.3 6.1 0.00 0.56 0.56 87 1008.3
20260509145611 56 236 2.6 6.1 0.00 0.56 0.56 88 1008.2
20260509145106 56 207 1.7 2.6 0.00 0.56 0.56 90 1008.4
20260509144604 55 259 4.3 6.1 0.00 0.56 0.56 90 1008.5
20260509144100 55 221 1.7 7.0 0.00 0.56 0.56 91 1008.6
20260509143558 54 152 0.9 2.6 0.00 0.56 0.56 93 1008.4
20260509143055 54 220 1.7 4.3 0.00 0.56 0.56 92 1008.3
20260509142550 54 185 2.6 6.1 0.00 0.56 0.56 92 1008.4
20260509142047 54 202 1.7 4.3 0.00 0.56 0.56 92 1008.3
20260509141543 54 222 1.7 2.6 0.00 0.56 0.56 92 1008.2
20260509141040 54 258 1.7 6.1 0.00 0.56 0.56 92 1008.3
20260509140537 55 220 3.5 3.5 0.00 0.56 0.56 92 1008.3
20260509140035 54 235 2.6 7.0 0.00 0.56 0.56 93 1008.3
20260509135531 54 217 2.6 8.7 0.00 0.56 0.56 93 1008.5
20260509135029 54 250 2.6 7.0 0.00 0.56 0.56 94 1008.3
20260509134526 54 239 3.5 4.3 0.00 0.56 0.56 94 1008.3
20260509134024 53 156 2.6 3.5 0.00 0.56 0.56 95 1008.3
20260509133520 53 163 1.7 4.3 0.00 0.56 0.56 94 1008.4
20260509133018 53 216 2.6 7.0 0.00 0.56 0.56 95 1008.3
20260509132516 53 226 2.6 3.5 0.00 0.56 0.56 95 1008.3
20260509132014 53 186 2.6 3.5 0.00 0.56 0.56 95 1008.4
20260509131510 53 209 5.2 6.1 0.00 0.56 0.56 95 1008.4
20260509131007 53 220 5.2 6.1 0.00 0.56 0.56 95 1008.5
20260509130502 53 212 0.9 3.5 0.00 0.56 0.56 95 1008.6
20260509125959 52 207 3.5 6.1 0.00 0.56 0.56 95 1008.5
20260509125456 52 210 1.7 2.6 0.00 0.56 0.56 95 1008.8
20260509124951 52 221 2.6 4.3 0.00 0.56 0.56 95 1008.8
20260509124449 52 208 1.7 2.6 0.00 0.56 0.56 96 1008.9
20260509123946 52 247 2.6 4.3 0.00 0.56 0.56 96 1008.6
20260509123444 52 228 0.9 0.9 0.00 0.56 0.56 96 1008.7
20260509122939 52 223 0.9 0.9 0.00 0.56 0.56 96 1008.8
20260509122437 52 250 2.6 3.5 0.05 0.56 0.56 96 1008.8
20260509121933 52 196 0.9 0.9 0.05 0.56 0.56 96 1008.8
20260509121430 51 227 0.9 2.6 0.00 0.55 0.55 96 1008.9
20260509120928 51 186 0.9 2.6 0.00 0.55 0.55 96 1008.7
20260509120426 51 136 1.7 3.5 0.00 0.55 0.55 96 1008.8
20260509115924 51 204 1.7 2.6 0.00 0.55 0.55 96 1008.8
20260509115421 51 240 1.7 0.9 0.00 0.55 0.55 96 1008.8
20260509114918 51 240 0.0 0.9 0.00 0.55 0.55 96 1008.8
20260509114417 51 220 0.9 2.6 0.00 0.55 0.55 96 1008.8
20260509113916 51 230 0.0 0.9 0.00 0.55 0.55 96 1008.8
20260509113413 51 206 1.7 4.3 0.00 0.55 0.55 96 1008.9
20260509112909 51 213 2.6 2.6 0.07 0.55 0.55 96 1008.9
20260509112407 51 217 2.6 6.1 0.07 0.55 0.55 96 1008.6
20260509111904 51 226 1.7 2.6 0.00 0.54 0.54 96 1008.8
20260509111400 51 208 5.2 6.1 0.05 0.54 0.54 96 1008.5
20260509110858 51 218 1.7 4.3 0.00 0.53 0.53 96 1008.5
20260509110354 51 240 1.7 2.6 0.00 0.53 0.53 96 1008.6
20260509105852 51 226 2.6 4.3 0.00 0.53 0.53 96 1008.6
20260509105350 51 213 2.6 3.5 0.00 0.53 0.53 96 1008.4
20260509104847 51 211 0.9 2.6 0.00 0.53 0.53 96 1008.4
20260509104343 51 233 0.9 0.9 0.00 0.53 0.53 96 1008.6
20260509103841 51 229 2.6 4.3 0.00 0.53 0.53 96 1008.5
20260509103338 51 219 0.9 2.6 0.00 0.53 0.53 96 1008.3
20260509102837 51 191 0.9 0.9 0.07 0.53 0.53 96 1008.2
20260509102334 51 227 1.7 4.3 0.07 0.53 0.53 96 1008.6
20260509101829 51 157 1.7 2.6 0.00 0.52 0.52 96 1008.6
20260509101326 51 194 0.9 2.6 0.00 0.52 0.52 96 1008.5
20260509100824 51 212 0.9 3.5 0.00 0.52 0.52 96 1008.6
20260509100321 51 235 1.7 2.6 0.00 0.52 0.52 96 1008.6
20260509095817 51 143 0.9 2.6 0.05 0.52 0.52 96 1008.6
20260509095315 51 165 1.7 2.6 0.05 0.52 0.52 96 1008.6
20260509094812 51 160 1.7 2.6 0.00 0.51 0.51 96 1008.7
20260509094308 51 176 0.9 2.6 0.00 0.51 0.51 96 1008.8
20260509093806 51 232 0.9 2.6 0.00 0.51 0.51 96 1008.8
20260509093303 51 188 0.9 2.6 0.00 0.51 0.51 96 1008.8
20260509092802 51 217 1.7 3.5 0.07 0.51 0.51 96 1008.9
20260509092259 50 186 1.7 0.9 0.07 0.51 0.51 96 1008.7
20260509091757 50 227 1.7 3.5 0.00 0.50 0.50 96 1009.0
20260509091253 50 146 0.9 3.5 0.00 0.50 0.50 96 1009.0
20260509090751 50 126 0.9 3.5 0.00 0.50 0.50 97 1009.0
20260509090248 50 231 1.7 3.5 0.05 0.50 0.50 97 1008.9
20260509085745 50 143 0.0 3.5 0.19 0.50 0.50 97 1009.0
20260509085243 50 233 1.7 2.6 0.26 0.49 0.49 97 1009.1
20260509084739 50 8 0.9 0.9 0.17 0.47 0.47 97 1009.3
20260509084236 50 296 0.0 2.6 0.05 0.45 0.45 97 1009.2
20260509083734 50 106 0.9 2.6 0.00 0.44 0.44 96 1009.2
20260509083230 50 239 0.9 0.9 0.07 0.44 0.44 96 1009.3
20260509082727 50 217 0.0 0.0 0.07 0.44 0.44 96 1009.2
20260509082224 50 217 0.9 0.9 0.12 0.43 0.43 96 1009.1